FW6870 Weather Reports


Display with metric or nautical units.
time (UTC)temp
F
wind
direction
speed
MPH
gust
MPH
rain 1hr
in
rain 24hr
in
rain mn
in
humidity
%
barometer
mb
20210412224552 80 311 8.0 18.0 0.00 0.00 0.00 23 1010.0
20210412223222 80 279 11.0 19.0 0.00 0.00 0.00 22 1009.6
20210412221515 81 339 11.0 19.0 0.00 0.00 0.00 21 1009.4
20210412220028 81 323 12.0 23.0 0.00 0.00 0.00 21 1009.3
20210412214534 81 340 12.0 20.0 0.00 0.00 0.00 20 1009.2
20210412213032 82 320 15.0 24.0 0.00 0.00 0.00 19 1009.0
20210412211609 82 306 12.0 21.0 0.00 0.00 0.00 19 1008.8
20210412210134 82 292 15.0 25.0 0.00 0.00 0.00 19 1008.6
20210412204546 82 352 13.0 26.0 0.00 0.00 0.00 19 1008.5
20210412203049 82 304 17.0 24.0 0.00 0.00 0.00 18 1008.5
20210412201543 81 311 15.0 30.0 0.00 0.00 0.00 20 1008.5
20210412200309 81 345 12.0 24.0 0.00 0.00 0.00 22 1008.5
20210412194549 82 298 12.0 20.0 0.00 0.00 0.00 22 1008.4
20210412193030 81 313 15.0 22.0 0.00 0.00 0.00 24 1008.6
20210412191622 80 313 11.0 24.0 0.00 0.00 0.00 26 1008.8
20210412190311 80 336 12.0 26.0 0.00 0.00 0.00 25 1008.9
20210412184536 79 277 12.0 28.0 0.00 0.00 0.00 26 1008.9
20210412183153 78 296 15.0 30.0 0.00 0.00 0.00 27 1008.8
20210412181536 78 286 15.0 26.0 0.00 0.00 0.00 28 1009.0
20210412174524 78 304 11.0 21.0 0.00 0.00 0.00 28 1008.9
20210412173117 77 346 11.0 23.0 0.00 0.00 0.00 29 1009.2
20210412171538 77 312 9.0 28.0 0.00 0.00 0.00 29 1009.1
20210412170349 76 287 17.0 29.0 0.00 0.00 0.00 30 1009.1
20210412164530 75 313 20.0 32.0 0.00 0.00 0.00 32 1009.1
20210412163110 74 285 16.0 35.0 0.00 0.00 0.00 34 1009.2
20210412161620 73 243 10.0 21.0 0.00 0.00 0.00 40 1009.3
20210412160131 72 293 11.0 21.0 0.00 0.00 0.00 39 1009.5
20210412154658 71 294 7.0 14.0 0.00 0.00 0.00 42 1009.6
20210412153120 69 277 10.0 14.0 0.00 0.00 0.00 42 1009.8
20210412151535 69 253 6.0 14.0 0.00 0.00 0.00 43 1010.0
20210412150157 67 263 9.0 16.0 0.00 0.00 0.00 43 1009.7
20210412144557 67 289 6.0 13.0 0.00 0.00 0.00 45 1009.8
20210412143154 66 287 8.0 14.0 0.00 0.00 0.00 44 1009.8
20210412141531 64 267 4.0 13.0 0.00 0.00 0.00 48 1009.8
20210412140142 63 257 5.0 11.0 0.00 0.00 0.00 51 1009.9
20210412134525 62 275 5.0 10.0 0.00 0.00 0.00 52 1009.8
20210412133054 61 259 4.0 10.0 0.00 0.00 0.00 55 1009.7
20210412131538 60 265 6.0 11.0 0.00 0.00 0.00 52 1009.7
20210412124527 58 269 6.0 12.0 0.00 0.00 0.00 55 1009.5
20210412121622 57 259 7.0 11.0 0.00 0.00 0.00 52 1009.2
20210412114538 58 278 9.0 13.0 0.00 0.00 0.00 47 1009.0
20210412113029 58 279 11.0 14.0 0.00 0.00 0.00 47 1008.6
20210412111526 58 285 10.0 13.0 0.00 0.00 0.00 49 1008.5
20210412110050 58 296 11.0 15.0 0.00 0.00 0.00 49 1008.5
20210412104524 58 275 11.0 14.0 0.00 0.00 0.00 50 1008.2
20210412103047 57 286 10.0 13.0 0.00 0.00 0.00 51 1007.9
20210412101547 57 281 10.0 14.0 0.00 0.00 0.00 52 1007.9
20210412100140 57 284 11.0 14.0 0.00 0.00 0.00 52 1007.7
20210412094527 57 281 11.0 14.0 0.00 0.00 0.00 53 1007.6
20210412093036 56 286 12.0 16.0 0.00 0.00 0.00 57 1007.5
20210412091540 55 279 11.0 16.0 0.00 0.00 0.00 61 1007.2
20210412090215 55 284 10.0 13.0 0.00 0.00 0.00 62 1007.2
20210412084531 55 286 10.0 13.0 0.00 0.00 0.00 61 1007.1
20210412083053 56 294 10.0 13.0 0.00 0.00 0.00 58 1006.9
20210412081523 57 284 9.0 13.0 0.00 0.00 0.00 57 1006.8
20210412080025 56 304 9.0 13.0 0.00 0.00 0.00 59 1006.7
20210412074521 55 293 7.0 11.0 0.00 0.00 0.00 60 1006.6
20210412073134 56 277 8.0 11.0 0.00 0.00 0.00 60 1006.6
20210412071519 56 312 6.0 9.0 0.00 0.00 0.00 59 1006.6
20210412070035 57 292 7.0 11.0 0.00 0.00 0.00 57 1006.5
20210412064528 57 329 4.0 9.0 0.00 0.00 0.00 58 1006.6
20210412061541 58 307 7.0 11.0 0.00 0.00 0.00 56 1006.3
20210412060047 58 282 7.0 11.0 0.00 0.00 0.00 55 1006.4
20210412054550 59 267 8.0 11.0 0.00 0.00 0.00 54 1006.3
20210412051544 59 273 8.0 12.0 0.00 0.00 0.00 53 1006.1
20210412050520 60 280 8.0 10.0 0.00 0.00 0.00 52 1006.0
20210412044529 60 279 8.0 12.0 0.00 0.00 0.00 51 1006.0
20210412043147 60 281 8.0 12.0 0.00 0.00 0.00 51 1006.0
20210412041546 61 274 8.0 11.0 0.00 0.00 0.00 50 1005.8
20210412040032 61 277 8.0 10.0 0.00 0.00 0.00 48 1005.7
20210412034520 62 261 6.0 9.0 0.00 0.00 0.00 48 1005.6
20210412033039 62 257 6.0 11.0 0.00 0.00 0.00 48 1005.7
20210412031517 62 271 6.0 10.0 0.00 0.00 0.00 47 1005.7
20210412030022 63 275 7.0 12.0 0.00 0.00 0.00 46 1005.7
20210412024602 63 290 8.0 12.0 0.00 0.00 0.00 45 1005.7
20210412023103 63 303 10.0 15.0 0.00 0.00 0.00 44 1005.5
20210412021518 63 276 11.0 15.0 0.00 0.00 0.00 44 1005.3
20210412020031 64 279 9.0 13.0 0.00 0.00 0.00 43 1005.2
20210412014530 64 288 7.0 14.0 0.00 0.00 0.00 43 1005.0
20210412013230 65 286 11.0 17.0 0.00 0.00 0.00 41 1004.8
20210412011539 65 296 11.0 18.0 0.00 0.00 0.00 41 1004.5
20210412010050 65 285 12.0 18.0 0.00 0.00 0.00 41 1004.2
20210412004540 65 284 8.0 14.0 0.00 0.00 0.00 42 1003.9
20210412001530 66 268 6.0 14.0 0.00 0.00 0.00 41 1003.7
20210412000034 67 241 7.0 14.0 0.00 0.00 0.00 39 1003.6
20210411234524 68 252 10.0 16.0 0.00 0.00 0.00 38 1003.4
20210411233141 69 261 11.0 19.0 0.00 0.00 0.00 37 1003.3
20210411231522 70 273 10.0 19.0 0.00 0.00 0.00 37 1003.3
20210411230058 70 284 9.0 20.0 0.00 0.00 0.00 36 1003.2